Flag Weather past 2 weeks in Lakewood, Colorado, U.S.A.

Now
55 °F

Partly sunny.


Feels Like: 53 °F
Forecast: 34 / 62 °F
Wind: 7 mph from Southeast

Location: Centennial Airport

Current Time: Nov 27, 2014 at 4:45:47 PM

Latest Report: Nov 27, 2014 at 3:53 PM


Visibility: 10 mi

Pressure: 30.09 "Hg

Humidity: 30%

Dew point: 24 °F

Location of LakewoodLocation

Historic Weather in Lakewood — Graph

°F

Lakewood temperature yesterday

Maximum temperature yesterday: 47 °F (at 2:53 PM)
Minimum temperature yesterday: 26 °F (at 3:53 AM)
Average temperature yesterday: 33 °F

Past Weeks' High & Low Weather Summary

 TemperatureHumidityPressure
High63 °F (Nov 27, 12:53 PM)96% (Nov 23, 3:55 PM)30.77 "Hg (Nov 23, 3:55 PM)
Low-7 °F (Nov 13, 12:53 AM)13% (Nov 27, 10:53 AM)29.46 "Hg (Nov 23, 12:53 AM)
Average29 °F55%30.11 "Hg
* Reported Nov 12 2:53 PM — Nov 27 2:53 PM, Lakewood, Weather by CustomWeather, © 2014

Note: Actual official high and low records may vary slightly from our data, if they occured in-between our weather recording intervals... More about our weather records

Advertising

Lakewood weather history for previous 24 hours

 ConditionsComfort  
Time TempWeatherWind HumidityBarometerVisibility
2:53 PM
Nov 27
59 °FBroken clouds.3 mph20%30.10 "Hg10 mi
1:53 PM63 °FBroken clouds.7 mph15%30.10 "Hg10 mi
12:53 PM63 °FBroken clouds.7 mph13%30.09 "Hg10 mi
11:53 AM62 °FPartly sunny.8 mph13%30.15 "Hg10 mi
10:53 AM62 °FBroken clouds.12 mph13%30.19 "Hg10 mi
9:53 AM58 °FPartly sunny.13 mph17%30.21 "Hg10 mi
8:53 AM53 °FPartly sunny.5 mph22%30.24 "Hg10 mi
7:53 AM46 °FBroken clouds.6 mph30%30.27 "Hg10 mi
6:53 AM43 °FPartly cloudy.9 mph34%30.26 "Hg10 mi
5:53 AM47 °FPassing clouds.14 mph28%30.25 "Hg10 mi
4:53 AM44 °FPassing clouds.6 mph35%30.23 "Hg10 mi
3:53 AM40 °FPassing clouds.8 mph47%30.24 "Hg10 mi
2:53 AM37 °FPassing clouds.8 mph57%30.26 "Hg10 mi
1:53 AM35 °FPassing clouds.No wind64%30.27 "Hg10 mi
12:53 AM39 °FPassing clouds.7 mph53%30.26 "Hg10 mi
11:53 PM
Nov 26
31 °FClear.5 mph73%30.30 "Hg10 mi
10:53 PM29 °FPassing clouds.No wind75%30.32 "Hg10 mi
9:53 PM33 °FPassing clouds.No wind70%30.32 "Hg10 mi
8:53 PM30 °FPassing clouds.3 mph82%30.32 "Hg10 mi
7:53 PM30 °FPassing clouds.3 mph79%30.34 "Hg10 mi
6:53 PM35 °FPassing clouds.5 mph67%30.32 "Hg10 mi
5:53 PM33 °FPassing clouds.6 mph70%30.30 "Hg10 mi
4:53 PM39 °FPassing clouds.3 mph60%30.25 "Hg10 mi
Weather by CustomWeather, © 2014

See weather overviewHow to use our weather pages